Toledo Metcalf, OH

2:38 PM EDT on September 20, 2017 (GMT -0400)
Metcalf

Weather History for KTDZ - December, 2013

Change the Weather History Date:

Sunday, December 22, 2013

  Actual Average (KTOL) Record (KTOL)
Temperature  
Mean Temperature 38 °F -  
Max Temperature 44 °F 33 °F 61 °F (1949)
Min Temperature 33 °F 18 °F -19 °F (1989)
Degree Days  
Heating Degree Days 26    
Moisture  
Dew Point 35 °F    
Average Humidity 87    
Maximum Humidity 93    
Minimum Humidity 76    
Precipitation  
Precipitation 0.31 in - - ()
Sea Level Pressure  
Sea Level Pressure 29.72 in    
Wind  
Wind Speed 13 mph (WSW)    
Max Wind Speed 26 mph    
Max Gust Speed 40 mph    
Visibility 8 miles    
Events Rain    
Averages and records for this station are not official NWS values.
T = Trace of Precipitation, MM = Missing Value Source: NWS Daily Summary

Daily Weather History Graph

Daily Weather History Graph

Search for Another Location

Airport or City:

Trip Planner

Search our weather history database for the weather conditions in past years. The results will help you decide how hot, cold, wet, or windy it might be!

Date:

Astronomy

Dec. 22, 2013 Rise Set
Actual Time 7:57 AM EST 5:07 PM EST
Civil Twilight 7:26 AM EST 5:39 PM EST
Nautical Twilight 6:51 AM EST 6:14 PM EST
Astronomical Twilight 6:17 AM EST 6:47 PM EST
Moon 10:23 PM EST (12/22) 10:50 AM EST (12/22)
Length of Visible Light 10h 12m
Length of Day
9h 09m
Waning Gibbous, 77% of the Moon is Illuminated
Dec 22
Waning Gibbous
Dec 25
Last Quarter
Jan 1
New
Jan 7
First Quarter
Jan 15
Full

Hourly Weather History & Observations

Time (EST) Temp. Windchill Dew Point Humidity Pressure Visibility Wind Dir Wind Speed Gust Speed Precip Events Conditions
12:53 AM 34.0 °F 23.4 °F 30.9 °F 89% 29.57 in 4.0 mi ENE 17.3 mph 24.2 mph 0.14 in Rain Rain
1:53 AM 34.0 °F 26.6 °F 32.0 °F 92% 29.61 in 6.0 mi ENE 9.2 mph - 0.06 in Rain Light Rain
2:25 AM 33.8 °F 23.5 °F 30.2 °F 87% 29.49 in 8.0 mi ENE 16.1 mph - 0.01 in Rain Light Rain
2:53 AM 34.0 °F 24.6 °F 32.0 °F 92% 29.54 in 10.0 mi ENE 13.8 mph 17.3 mph 0.01 in   Overcast
3:53 AM 34.0 °F 24.6 °F 32.0 °F 92% 29.56 in 10.0 mi NE 13.8 mph 21.9 mph N/A   Overcast
4:53 AM 35.1 °F 26.4 °F 33.1 °F 92% 29.52 in 9.0 mi ENE 12.7 mph - N/A   Overcast
5:35 AM 35.6 °F 28.6 °F 33.8 °F 93% 29.55 in 2.0 mi NNW 9.2 mph - 0.02 in Rain Rain
5:53 AM 35.1 °F 28.6 °F 33.1 °F 92% 29.56 in 2.0 mi NNE 8.1 mph - 0.06 in Rain Rain
6:02 AM 35.6 °F 29.2 °F 33.8 °F 93% 29.54 in 4.0 mi NE 8.1 mph - 0.00 in Rain Light Rain
6:16 AM 35.6 °F 27.5 °F 33.8 °F 93% 29.54 in 2.5 mi NE 11.5 mph - 0.02 in Rain Light Rain
6:26 AM 35.6 °F 30.7 °F 33.8 °F 93% 29.55 in 3.0 mi North 5.8 mph - 0.03 in Rain Light Rain
6:46 AM 35.6 °F - 33.8 °F 93% 29.56 in 4.0 mi Calm Calm - 0.03 in Rain Light Rain
6:53 AM 35.1 °F 31.0 °F 32.0 °F 89% 29.57 in 4.0 mi NE 4.6 mph - 0.03 in Rain Light Rain
7:01 AM 35.6 °F - 32.0 °F 87% 29.57 in 4.0 mi Calm Calm - 0.00 in   Overcast
7:40 AM 35.6 °F - 33.8 °F 93% 29.59 in 3.0 mi Calm Calm - 0.00 in   Overcast
7:42 AM 35.6 °F - 33.8 °F 93% 29.60 in 2.5 mi Calm Calm - 0.00 in   Overcast
7:53 AM 35.1 °F - 33.1 °F 92% 29.61 in 2.0 mi Calm Calm - 0.00 in   Overcast
8:27 AM 35.6 °F 30.7 °F 33.8 °F 93% 29.62 in 4.0 mi SSE 5.8 mph - 0.01 in   Overcast
8:53 AM 39.0 °F 32.8 °F 37.0 °F 93% 29.65 in 10.0 mi WSW 9.2 mph - 0.01 in   Overcast
9:20 AM 42.8 °F 34.8 °F 39.2 °F 87% 29.66 in 10.0 mi SW 17.3 mph 24.2 mph N/A   Overcast
9:53 AM 44.1 °F 35.7 °F 39.9 °F 85% 29.68 in 10.0 mi SW 20.7 mph 28.8 mph N/A   Overcast
10:10 AM 44.6 °F 36.1 °F 39.2 °F 81% 29.66 in 10.0 mi SW 21.9 mph 33.4 mph N/A   Overcast
10:39 AM 44.6 °F 35.7 °F 39.2 °F 81% 29.70 in 10.0 mi SW 24.2 mph 40.3 mph N/A   Overcast
10:53 AM 43.0 °F 33.1 °F 37.9 °F 82% 29.73 in 10.0 mi WSW 26.5 mph 35.7 mph N/A   Overcast
11:50 AM 44.6 °F 35.5 °F 37.4 °F 76% 29.73 in 10.0 mi SW 25.3 mph 38.0 mph N/A   Overcast
11:53 AM 44.1 °F 35.4 °F 37.9 °F 79% 29.74 in 10.0 mi SW 21.9 mph 38.0 mph N/A   Overcast
12:53 PM 43.0 °F 34.8 °F 37.0 °F 80% 29.76 in 10.0 mi SW 18.4 mph 36.8 mph N/A   Overcast
1:04 PM 42.8 °F 33.3 °F 37.4 °F 81% 29.76 in 10.0 mi SW 24.2 mph 33.4 mph N/A   Overcast
1:53 PM 42.1 °F 33.1 °F 36.0 °F 79% 29.79 in 10.0 mi SW 20.7 mph 32.2 mph N/A   Overcast
2:53 PM 41.0 °F 31.9 °F 35.1 °F 79% 29.81 in 10.0 mi WSW 19.6 mph 28.8 mph N/A   Overcast
3:08 PM 41.0 °F 31.9 °F 35.6 °F 81% 29.80 in 10.0 mi WSW 19.6 mph 26.5 mph N/A   Overcast
3:29 PM 39.2 °F 29.3 °F 35.6 °F 87% 29.81 in 10.0 mi WSW 20.7 mph 28.8 mph N/A   Overcast
3:53 PM 39.9 °F 31.1 °F 35.1 °F 83% 29.85 in 10.0 mi WSW 17.3 mph 28.8 mph N/A   Overcast
4:53 PM 39.0 °F 30.3 °F 35.1 °F 86% 29.89 in 7.0 mi WSW 16.1 mph 23.0 mph N/A   Overcast
5:10 PM 39.2 °F 32.0 °F 35.6 °F 87% 29.89 in 10.0 mi WSW 11.5 mph - N/A   Overcast
5:53 PM 39.0 °F 31.4 °F 34.0 °F 82% 29.91 in 10.0 mi West 12.7 mph - N/A   Overcast
6:22 PM 37.4 °F 29.3 °F 35.6 °F 93% 29.91 in 10.0 mi West 12.7 mph - N/A   Overcast
6:50 PM 37.4 °F 28.5 °F 33.8 °F 87% 29.92 in 10.0 mi WSW 15.0 mph - N/A   Overcast
6:53 PM 37.9 °F 29.6 °F 33.1 °F 83% 29.94 in 10.0 mi WSW 13.8 mph - N/A   Overcast
7:28 PM 37.4 °F 29.3 °F 33.8 °F 87% 29.93 in 10.0 mi WSW 12.7 mph - N/A   Overcast
7:53 PM 37.0 °F 29.8 °F 33.1 °F 86% 29.96 in 10.0 mi WSW 10.4 mph - N/A   Overcast
8:53 PM 37.0 °F 31.0 °F 33.1 °F 86% 29.96 in 10.0 mi SW 8.1 mph - N/A   Overcast
9:53 PM 37.0 °F 29.3 °F 32.0 °F 82% 29.98 in 10.0 mi SW 11.5 mph - N/A   Overcast
10:53 PM 36.0 °F 28.5 °F 32.0 °F 86% 29.98 in 10.0 mi WSW 10.4 mph - N/A   Overcast
11:53 PM 35.1 °F 29.3 °F 32.0 °F 89% 30.01 in 10.0 mi WSW 6.9 mph - 0.00 in   Overcast